JIGSW02 EGVN-EGVN

Flight info

Callsign JIGSW02
Flight time N/A
Altitude 11000
Route 515620N0015037W 522147N0003223W DCT MAM DCT 525338N0005213E 525113N0004657E 524951N0004357E 525338N0005213E 525113N0004657E 524951N0004357E DCT NWI DCT MAM DCT 522147N0003223W DCT 515620N0015037W
Aircraft A400/H-SDE3FGHIRWY/L4T

Departure

Time 2026-05-04 19:26
Airport RAF Brize Norton (EGVN)

Arrival

Time N/A
Airport RAF Brize Norton (EGVN)
Time Latitude Longitude Altitude Speed Heading
2026-05-04 19:11 51.74444 -1.59321 273 ft 0 kts 123°
2026-05-04 19:16 51.74448 -1.59328 273 ft 0 kts 304°
2026-05-04 19:22 51.74455 -1.59345 273 ft 4 kts 305°
2026-05-04 19:22 51.74475 -1.59437 273 ft 14 kts 268°
2026-05-04 19:22 51.74444 -1.59625 275 ft 19 kts 252°
2026-05-04 19:23 51.74432 -1.59833 273 ft 19 kts 287°
2026-05-04 19:23 51.74484 -1.60008 276 ft 16 kts 299°
2026-05-04 19:23 51.74486 -1.60158 273 ft 9 kts 262°
2026-05-04 19:23 51.74485 -1.60179 273 ft 0 kts 266°
2026-05-04 19:24 51.74488 -1.60213 273 ft 7 kts 282°
2026-05-04 19:24 51.74524 -1.60295 274 ft 11 kts 318°
2026-05-04 19:24 51.74538 -1.60315 274 ft 0 kts 318°
2026-05-04 19:25 51.74539 -1.60317 274 ft 2 kts 319°
2026-05-04 19:25 51.74593 -1.60364 274 ft 14 kts 356°
2026-05-04 19:25 51.74639 -1.60251 275 ft 26 kts 72°
2026-05-04 19:26 51.74787 -1.59446 273 ft 125 kts 74°
2026-05-04 19:26 51.75078 -1.57845 670 ft 165 kts 72°
2026-05-04 19:26 51.75408 -1.55944 1373 ft 186 kts 83°
2026-05-04 19:26 51.74990 -1.53997 2215 ft 202 kts 134°
2026-05-04 19:27 51.73615 -1.53277 3060 ft 222 kts 186°
2026-05-04 19:27 51.72275 -1.54516 3852 ft 240 kts 233°
2026-05-04 19:27 51.71783 -1.57130 4557 ft 257 kts 276°
2026-05-04 19:27 51.72511 -1.59759 5393 ft 266 kts 312°
2026-05-04 19:28 51.73964 -1.61658 6329 ft 274 kts 327°
2026-05-04 19:28 51.75631 -1.63231 7237 ft 280 kts 329°
2026-05-04 19:28 51.77339 -1.64796 8194 ft 285 kts 329°
2026-05-04 19:28 51.79039 -1.66498 9186 ft 288 kts 324°
2026-05-04 19:29 51.80680 -1.68401 10156 ft 289 kts 321°
2026-05-04 19:29 51.82251 -1.70416 11006 ft 290 kts 320°
2026-05-04 19:29 51.83863 -1.72439 11210 ft 293 kts 321°
2026-05-04 19:29 51.85515 -1.74383 11193 ft 299 kts 323°
2026-05-04 19:30 51.87311 -1.76348 11211 ft 318 kts 325°
2026-05-04 19:30 51.89124 -1.78209 11205 ft 305 kts 326°
2026-05-04 19:30 51.90920 -1.80020 11144 ft 297 kts 328°
2026-05-04 19:30 51.92819 -1.81144 11054 ft 297 kts 350°
2026-05-04 19:31 51.94878 -1.80906 11082 ft 300 kts 15°
2026-05-04 19:31 51.96694 -1.79272 11072 ft 301 kts 43°
2026-05-04 19:31 51.97903 -1.76524 11042 ft 302 kts 64°
2026-05-04 19:31 51.98697 -1.73375 11031 ft 302 kts 71°
2026-05-04 19:32 51.99374 -1.70145 11032 ft 302 kts 71°
2026-05-04 19:32 52.00085 -1.66949 11025 ft 302 kts 69°
2026-05-04 19:32 52.00892 -1.63779 11033 ft 302 kts 66°
2026-05-04 19:32 52.01780 -1.60686 11038 ft 303 kts 64°
2026-05-04 19:33 52.02742 -1.57596 11047 ft 314 kts 62°
2026-05-04 19:33 52.03768 -1.54452 11050 ft 322 kts 62°
2026-05-04 19:33 52.04837 -1.51237 11041 ft 324 kts 61°
2026-05-04 19:33 52.05914 -1.48019 11045 ft 325 kts 61°
2026-05-04 19:34 52.06991 -1.44788 11047 ft 325 kts 61°
2026-05-04 19:34 52.08064 -1.41554 11044 ft 325 kts 61°
2026-05-04 19:34 52.09135 -1.38305 11048 ft 326 kts 62°
2026-05-04 19:34 52.10202 -1.35056 11051 ft 326 kts 62°
2026-05-04 19:35 52.11257 -1.31833 11046 ft 315 kts 62°
2026-05-04 19:35 52.12266 -1.28741 11043 ft 306 kts 62°
2026-05-04 19:35 52.13259 -1.25691 11055 ft 303 kts 62°
2026-05-04 19:35 52.14221 -1.22644 11053 ft 302 kts 65°
2026-05-04 19:36 52.15251 -1.19665 11030 ft 303 kts 59°
2026-05-04 19:36 52.16257 -1.16622 11049 ft 309 kts 62°
2026-05-04 19:36 52.17268 -1.13498 11024 ft 310 kts 62°
2026-05-04 19:36 52.18260 -1.10406 11021 ft 308 kts 62°
2026-05-04 19:37 52.19251 -1.07327 11043 ft 304 kts 62°
2026-05-04 19:37 52.20245 -1.04290 11012 ft 303 kts 62°
2026-05-04 19:37 52.21224 -1.01256 10964 ft 301 kts 60°
2026-05-04 19:37 52.22213 -0.98235 11022 ft 303 kts 60°
2026-05-04 19:38 52.23187 -0.95185 11018 ft 302 kts 62°
2026-05-04 19:38 52.24183 -0.92165 10992 ft 302 kts 61°
2026-05-04 19:38 52.25150 -0.89119 10998 ft 303 kts 62°
2026-05-04 19:38 52.26110 -0.86057 11010 ft 303 kts 63°
2026-05-04 19:39 52.27077 -0.83058 11016 ft 302 kts 62°
2026-05-04 19:39 52.28043 -0.80014 11035 ft 303 kts 62°
2026-05-04 19:39 52.29036 -0.76979 11032 ft 302 kts 62°
2026-05-04 19:39 52.29982 -0.73933 11021 ft 300 kts 59°
2026-05-04 19:40 52.31028 -0.70955 11075 ft 302 kts 59°
2026-05-04 19:40 52.32009 -0.67923 11081 ft 302 kts 63°
2026-05-04 19:40 52.32930 -0.64850 11070 ft 301 kts 62°
2026-05-04 19:40 52.33879 -0.61789 11060 ft 302 kts 62°
2026-05-04 19:41 52.34852 -0.58735 11029 ft 301 kts 62°
2026-05-04 19:41 52.35825 -0.55695 11024 ft 302 kts 62°
2026-05-04 19:41 52.36753 -0.52660 11007 ft 302 kts 64°
2026-05-04 19:41 52.37570 -0.49554 10979 ft 301 kts 66°
2026-05-04 19:42 52.38392 -0.46403 10613 ft 302 kts 67°
2026-05-04 19:42 52.39199 -0.43197 9968 ft 304 kts 67°
2026-05-04 19:42 52.40003 -0.40035 9055 ft 296 kts 66°
2026-05-04 19:42 52.40795 -0.36958 8272 ft 291 kts 66°
2026-05-04 19:43 52.41582 -0.33929 7512 ft 286 kts 66°
2026-05-04 19:43 52.42362 -0.30940 6768 ft 283 kts 66°
2026-05-04 19:43 52.43123 -0.28030 6025 ft 279 kts 66°
2026-05-04 19:43 52.43882 -0.25127 5359 ft 274 kts 66°
2026-05-04 19:44 52.44637 -0.22238 5058 ft 275 kts 65°
2026-05-04 19:44 52.45385 -0.19369 4993 ft 273 kts 66°
2026-05-04 19:44 52.46126 -0.16524 4992 ft 272 kts 66°
2026-05-04 19:44 52.46867 -0.13673 4992 ft 272 kts 65°
2026-05-04 19:45 52.47610 -0.10813 4991 ft 272 kts 66°
2026-05-04 19:45 52.48349 -0.07961 4994 ft 272 kts 65°
2026-05-04 19:45 52.49091 -0.05097 4994 ft 272 kts 66°
2026-05-04 19:45 52.49829 -0.02242 4994 ft 272 kts 66°
2026-05-04 19:46 52.50564 0.00609 4985 ft 272 kts 65°
2026-05-04 19:46 52.51301 0.03468 4989 ft 272 kts 66°
2026-05-04 19:46 52.52039 0.06332 4992 ft 272 kts 66°
2026-05-04 19:46 52.52775 0.09194 4990 ft 270 kts 66°
2026-05-04 19:47 52.53502 0.12023 4990 ft 268 kts 65°
2026-05-04 19:47 52.54226 0.14846 4993 ft 268 kts 66°
2026-05-04 19:47 52.54950 0.17673 4995 ft 268 kts 66°
2026-05-04 19:47 52.55672 0.20493 4990 ft 268 kts 66°
2026-05-04 19:48 52.56385 0.23280 4994 ft 268 kts 66°
2026-05-04 19:48 52.57106 0.26106 4993 ft 268 kts 66°
2026-05-04 19:48 52.57826 0.28931 4993 ft 268 kts 65°
2026-05-04 19:48 52.58546 0.31759 4993 ft 268 kts 66°
2026-05-04 19:49 52.59264 0.34581 4994 ft 268 kts 66°
2026-05-04 19:49 52.59984 0.37417 4994 ft 268 kts 65°
2026-05-04 19:49 52.60694 0.40217 4997 ft 268 kts 66°
2026-05-04 19:49 52.61410 0.43044 4991 ft 268 kts 66°
2026-05-04 19:50 52.62125 0.45871 4992 ft 268 kts 66°
2026-05-04 19:50 52.62840 0.48698 4993 ft 267 kts 66°
2026-05-04 19:50 52.63556 0.51535 4993 ft 269 kts 65°
2026-05-04 19:50 52.64366 0.54314 4996 ft 269 kts 56°
2026-05-04 19:51 52.65433 0.56834 4994 ft 268 kts 52°
2026-05-04 19:51 52.66560 0.59283 4994 ft 269 kts 51°
2026-05-04 19:51 52.67694 0.61734 4993 ft 269 kts 51°
2026-05-04 19:51 52.68822 0.64173 4990 ft 266 kts 51°
2026-05-04 19:52 52.69900 0.66499 4914 ft 251 kts 51°
2026-05-04 19:52 52.70953 0.68791 4447 ft 252 kts 51°
2026-05-04 19:52 52.72024 0.71128 3827 ft 259 kts 51°
2026-05-04 19:52 52.73131 0.73515 3198 ft 263 kts 51°
2026-05-04 19:53 52.74200 0.75836 2663 ft 239 kts 51°
2026-05-04 19:53 52.75131 0.77875 2496 ft 211 kts 51°
2026-05-04 19:53 52.75993 0.79787 2503 ft 207 kts 53°
2026-05-04 19:53 52.76787 0.81747 2502 ft 203 kts 55°
2026-05-04 19:54 52.77299 0.83041 2496 ft 203 kts 55°
2026-05-04 19:54 52.78062 0.84979 2496 ft 202 kts 55°
2026-05-04 19:54 52.78830 0.86919 2495 ft 201 kts 55°
2026-05-04 19:54 52.79593 0.88854 2500 ft 200 kts 55°
2026-05-04 19:55 52.80353 0.90789 2500 ft 200 kts 55°
2026-05-04 19:55 52.81112 0.92722 2498 ft 201 kts 55°
2026-05-04 19:55 52.81875 0.94656 2500 ft 201 kts 55°
2026-05-04 19:55 52.82839 0.96248 2403 ft 194 kts 23°
2026-05-04 19:56 52.84148 0.96403 2185 ft 193 kts 339°
2026-05-04 19:56 52.85239 0.95092 2016 ft 195 kts 318°
2026-05-04 19:56 52.86221 0.93611 1828 ft 185 kts 319°
2026-05-04 19:56 52.87150 0.92227 1645 ft 175 kts 319°
2026-05-04 19:57 52.88018 0.90941 1499 ft 164 kts 320°
2026-05-04 19:57 52.88772 0.89582 1329 ft 159 kts 298°
2026-05-04 19:57 52.89013 0.87807 1179 ft 160 kts 275°
2026-05-04 19:57 52.89017 0.85961 1257 ft 157 kts 263°
2026-05-04 19:58 52.88619 0.84344 1299 ft 149 kts 233°
2026-05-04 19:58 52.87875 0.83159 1121 ft 148 kts 227°
2026-05-04 19:58 52.87191 0.81871 1038 ft 149 kts 232°
2026-05-04 19:58 52.86560 0.80525 988 ft 148 kts 234°
2026-05-04 19:59 52.85938 0.79173 982 ft 148 kts 233°
2026-05-04 19:59 52.85314 0.77829 962 ft 147 kts 233°
2026-05-04 19:59 52.84722 0.76450 963 ft 147 kts 235°
2026-05-04 19:59 52.84140 0.75069 972 ft 149 kts 236°
2026-05-04 20:00 52.83458 0.73702 1131 ft 162 kts 220°
2026-05-04 20:00 52.82355 0.72922 1446 ft 183 kts 184°
2026-05-04 20:00 52.81165 0.73445 1708 ft 184 kts 138°
2026-05-04 20:00 52.80673 0.75281 1971 ft 178 kts 79°
2026-05-04 20:01 52.81088 0.77173 2061 ft 180 kts 57°
2026-05-04 20:01 52.81757 0.78923 2124 ft 181 kts 56°
2026-05-04 20:01 52.82398 0.80710 2172 ft 181 kts 58°
2026-05-04 20:01 52.83017 0.82529 2212 ft 181 kts 58°
2026-05-04 20:02 52.83652 0.84322 2245 ft 180 kts 57°
2026-05-04 20:02 52.84313 0.86091 2286 ft 180 kts 55°
2026-05-04 20:02 52.85015 0.87814 2319 ft 180 kts 52°
2026-05-04 20:02 52.85746 0.89502 2357 ft 181 kts 52°
2026-05-04 20:03 52.86572 0.91045 2210 ft 179 kts 27°
2026-05-04 20:03 52.87753 0.91224 1898 ft 174 kts 342°
2026-05-04 20:03 52.88834 0.90367 1559 ft 175 kts 333°
2026-05-04 20:03 52.89854 0.89326 1314 ft 170 kts 311°
2026-05-04 20:04 52.90073 0.87518 1114 ft 168 kts 248°
2026-05-04 20:04 52.89387 0.85979 984 ft 170 kts 229°
2026-05-04 20:04 52.88588 0.84516 1025 ft 170 kts 229°
2026-05-04 20:04 52.87841 0.83038 975 ft 160 kts 234°
2026-05-04 20:05 52.87179 0.81650 1109 ft 149 kts 232°
2026-05-04 20:05 52.86540 0.80315 1075 ft 148 kts 234°
2026-05-04 20:05 52.85916 0.78955 1050 ft 149 kts 234°
2026-05-04 20:05 52.85294 0.77596 1037 ft 148 kts 233°
2026-05-04 20:06 52.84698 0.76220 1011 ft 146 kts 236°
2026-05-04 20:06 52.84138 0.74808 994 ft 148 kts 238°
2026-05-04 20:06 52.83459 0.73393 1190 ft 166 kts 222°
2026-05-04 20:06 52.82425 0.72698 1292 ft 165 kts 173°
2026-05-04 20:07 52.81453 0.73752 1484 ft 189 kts 115°
2026-05-04 20:07 52.80987 0.75981 1887 ft 222 kts 105°
2026-05-04 20:07 52.80496 0.78585 2416 ft 248 kts 105°
2026-05-04 20:07 52.79974 0.81368 3032 ft 256 kts 105°
2026-05-04 20:08 52.79447 0.84192 3630 ft 260 kts 105°
2026-05-04 20:08 52.78913 0.87076 3942 ft 264 kts 105°
2026-05-04 20:08 52.78377 0.89989 4004 ft 265 kts 105°
2026-05-04 20:08 52.77840 0.92897 4004 ft 265 kts 105°
2026-05-04 20:09 52.77309 0.95772 4000 ft 265 kts 105°
2026-05-04 20:09 52.76766 0.98674 4001 ft 265 kts 105°